When you browse on this site, cookies collect data to enhance your experience and personalize the content and advertising you see.
Visit our Privacy Policy to learn more. By continuing to use the site, you agree to this use of cookies and data.
  • En España
  • Lista de países
  • Para 7 días
  • Temperatura del agua
  • El tiempo en el mapa
  • Informadores
  • user-avatar
    Iniciar sesión

    Tiempo cada hora La Calera

    Hoy, 27 Febrero, Jueves

    Tiempo Temperatura Precipitaciones Viento Presión Humedad
    00:00 +13°C° 0 mm 0 mps 743 mmHg 77%
    01:00 +13°C° 0 mm 0 mps 743 mmHg 77%
    02:00 +13°C° 0 mm 0 mps 743 mmHg 78%
    03:00 +12°C° 0 mm 0 mps 743 mmHg 79%
    04:00 +12°C° 0 mm 0 mps 743 mmHg 79%
    05:00 +15°C° 0 mm 0 mps 743 mmHg 71%
    06:00 +17°C° 0 mm 0 mps 744 mmHg 62%
    07:00 +22°C° 0 mm 1 mps 744 mmHg 57%
    08:00 +25°C° 0 mm 1 mps 744 mmHg 49%
    09:00 +27°C° 0 mm 2 mps 745 mmHg 40%
    10:00 +30°C° 0 mm 3 mps 745 mmHg 32%
    11:00 +30°C° 0 mm 3 mps 744 mmHg 31%
    12:00 +31°C° 0 mm 3 mps 744 mmHg 30%
    13:00 +33°C° 0 mm 3 mps 743 mmHg 29%
    14:00 +31°C° 0 mm 3 mps 743 mmHg 31%
    15:00 +30°C° 0 mm 3 mps 743 mmHg 34%
    16:00 +29°C° 0 mm 3 mps 743 mmHg 36%
    17:00 +25°C° 0 mm 2 mps 743 mmHg 52%
    18:00 +21°C° 0 mm 1 mps 743 mmHg 67%
    19:00 +15°C° 0 mm 0 mps 743 mmHg 82%
    20:00 +14°C° 0 mm 0 mps 743 mmHg 82%
    21:00 +14°C° 0 mm 0 mps 743 mmHg 82%
    22:00 +14°C° 0 mm 0 mps 744 mmHg 81%
    23:00 +14°C° 0 mm 0 mps 743 mmHg 80%

    Mañana, 28 Febrero, Viernes

    Tiempo Temperatura Precipitaciones Viento Presión Humedad
    00:00 +14°C° 0 mm 0 mps 743 mmHg 79%
    01:00 +14°C° 0 mm 0 mps 743 mmHg 78%
    02:00 +13°C° 0 mm 0 mps 743 mmHg 78%
    03:00 +13°C° 0 mm 0 mps 743 mmHg 77%
    04:00 +13°C° 0 mm 0 mps 743 mmHg 77%
    05:00 +16°C° 0 mm 0 mps 743 mmHg 67%
    06:00 +19°C° 0 mm 0 mps 744 mmHg 57%
    07:00 +22°C° 0 mm 0 mps 744 mmHg 48%
    08:00 +26°C° 0 mm 1 mps 744 mmHg 41%
    09:00 +29°C° 0 mm 2 mps 744 mmHg 35%
    10:00 +32°C° 0 mm 2 mps 745 mmHg 29%
    11:00 +33°C° 0 mm 3 mps 744 mmHg 28%
    12:00 +34°C° 0 mm 3 mps 744 mmHg 28%
    13:00 +34°C° 0 mm 4 mps 744 mmHg 27%
    14:00 +33°C° 0 mm 3 mps 744 mmHg 29%
    15:00 +31°C° 0 mm 3 mps 744 mmHg 30%
    16:00 +30°C° 0 mm 3 mps 744 mmHg 32%
    17:00 +26°C° 0 mm 2 mps 744 mmHg 47%
    18:00 +21°C° 0 mm 1 mps 744 mmHg 62%
    19:00 +15°C° 0 mm 0 mps 744 mmHg 77%
    20:00 +15°C° 0 mm 0 mps 744 mmHg 75%
    21:00 +16°C° 0 mm 1 mps 744 mmHg 74%
    22:00 +16°C° 0 mm 1 mps 744 mmHg 72%
    23:00 +16°C° 0 mm 1 mps 744 mmHg 72%

    Pasado mañana, 29 Febrero, Sábado

    Tiempo Temperatura Precipitaciones Viento Presión Humedad
    00:00 +15°C° 0 mm 0 mps 743 mmHg 71%
    01:00 +15°C° 0 mm 0 mps 743 mmHg 70%
    02:00 +14°C° 0 mm 0 mps 743 mmHg 71%
    03:00 +14°C° 0 mm 0 mps 743 mmHg 72%
    04:00 +13°C° 0 mm 0 mps 743 mmHg 73%
    05:00 +16°C° 0 mm 0 mps 743 mmHg 63%
    06:00 +19°C° 0 mm 0 mps 744 mmHg 53%
    07:00 +22°C° 0 mm 0 mps 744 mmHg 43%
    08:00 +27°C° 0 mm 1 mps 744 mmHg 38%
    09:00 +29°C° 0 mm 2 mps 744 mmHg 34%
    10:00 +31°C° 0 mm 3 mps 744 mmHg 29%
    11:00 +33°C° 0 mm 3 mps 744 mmHg 30%
    12:00 +33°C° 0 mm 3 mps 744 mmHg 30%
    13:00 +33°C° 0 mm 4 mps 744 mmHg 31%
    14:00 +31°C° 0 mm 3 mps 744 mmHg 33%
    15:00 +30°C° 0 mm 3 mps 743 mmHg 35%
    16:00 +29°C° 0 mm 3 mps 743 mmHg 38%
    17:00 +25°C° 0 mm 2 mps 743 mmHg 53%
    18:00 +21°C° 0 mm 1 mps 743 mmHg 69%
    19:00 +15°C° 0 mm 0 mps 743 mmHg 84%
    20:00 +15°C° 0 mm 0 mps 743 mmHg 84%
    21:00 +14°C° 0 mm 0 mps 743 mmHg 84%
    22:00 +14°C° 0 mm 0 mps 743 mmHg 84%
    23:00 +14°C° 0 mm 0 mps 743 mmHg 84%

    1 Marzo, Domingo

    Tiempo Temperatura Precipitaciones Viento Presión Humedad
    00:00 +14°C° 0 mm 0 mps 743 mmHg 84%
    01:00 +13°C° 0 mm 0 mps 742 mmHg 83%
    02:00 +13°C° 0 mm 0 mps 742 mmHg 84%
    03:00 +13°C° 0 mm 0 mps 742 mmHg 84%
    04:00 +13°C° 0 mm 0 mps 742 mmHg 85%
    05:00 +15°C° 0 mm 0 mps 742 mmHg 76%
    06:00 +18°C° 0 mm 0 mps 743 mmHg 68%
    07:00 +20°C° 0 mm 0 mps 743 mmHg 59%
    08:00 +25°C° 0 mm 1 mps 744 mmHg 52%
    09:00 +27°C° 0 mm 2 mps 744 mmHg 45%
    10:00 +29°C° 0 mm 3 mps 744 mmHg 38%
    11:00 +30°C° 0 mm 3 mps 744 mmHg 37%
    12:00 +30°C° 0 mm 3 mps 744 mmHg 37%
    13:00 +32°C° 0 mm 4 mps 744 mmHg 37%
    14:00 +30°C° 0 mm 3 mps 744 mmHg 39%
    15:00 +29°C° 0 mm 3 mps 744 mmHg 41%
    16:00 +28°C° 0 mm 3 mps 744 mmHg 44%
    17:00 +25°C° 0 mm 2 mps 744 mmHg 58%
    18:00 +21°C° 0 mm 1 mps 744 mmHg 73%
    19:00 +16°C° 0 mm 1 mps 744 mmHg 87%
    20:00 +15°C° 0 mm 0 mps 744 mmHg 87%
    21:00 +14°C° 0 mm 0 mps 744 mmHg 88%
    22:00 +14°C° 0 mm 0 mps 743 mmHg 88%
    23:00 +14°C° 0 mm 0 mps 743 mmHg 88%

    2 Marzo, Lunes

    Tiempo Temperatura Precipitaciones Viento Presión Humedad
    00:00 +13°C° 0 mm 0 mps 743 mmHg 88%
    01:00 +13°C° 0 mm 0 mps 742 mmHg 87%
    02:00 +13°C° 0 mm 0 mps 742 mmHg 87%
    03:00 +13°C° 0 mm 0 mps 742 mmHg 87%
    04:00 +13°C° 0 mm 0 mps 742 mmHg 86%
    05:00 +15°C° 0 mm 0 mps 742 mmHg 78%
    06:00 +18°C° 0 mm 0 mps 743 mmHg 69%
    07:00 +20°C° 0 mm 0 mps 743 mmHg 61%
    08:00 +25°C° 0 mm 1 mps 743 mmHg 54%
    09:00 +27°C° 0 mm 2 mps 743 mmHg 48%
    10:00 +29°C° 0 mm 3 mps 743 mmHg 42%
    11:00 +29°C° 0 mm 3 mps 743 mmHg 41%
    12:00 +30°C° 0 mm 3 mps 743 mmHg 41%
    13:00 +30°C° 0 mm 4 mps 743 mmHg 41%
    14:00 +29°C° 0 mm 3 mps 743 mmHg 44%
    15:00 +28°C° 0 mm 3 mps 743 mmHg 47%
    16:00 +27°C° 0 mm 3 mps 743 mmHg 50%
    17:00 +23°C° 0 mm 2 mps 743 mmHg 63%
    18:00 +20°C° 0 mm 1 mps 743 mmHg 76%
    19:00 +15°C° 0 mm 1 mps 743 mmHg 90%
    20:00 +15°C° 0 mm 1 mps 743 mmHg 90%
    21:00 +14°C° 0 mm 0 mps 743 mmHg 89%
    22:00 +13°C° 0 mm 0 mps 743 mmHg 89%
    23:00 +13°C° 0 mm 0 mps 743 mmHg 89%

    3 Marzo, Martes

    Tiempo Temperatura Precipitaciones Viento Presión Humedad
    00:00 +13°C° 0 mm 0 mps 742 mmHg 88%
    01:00 +13°C° 0 mm 0 mps 742 mmHg 87%
    02:00 +13°C° 0 mm 0 mps 742 mmHg 87%
    03:00 +12°C° 0 mm 0 mps 742 mmHg 87%
    04:00 +12°C° 0 mm 0 mps 741 mmHg 87%
    05:00 +15°C° 0 mm 0 mps 742 mmHg 78%
    06:00 +17°C° 0 mm 0 mps 742 mmHg 69%
    07:00 +20°C° 0 mm 0 mps 742 mmHg 59%
    08:00 +25°C° 0 mm 1 mps 742 mmHg 51%
    09:00 +28°C° 0 mm 2 mps 742 mmHg 43%
    10:00 +31°C° 0 mm 2 mps 742 mmHg 35%
    11:00 +31°C° 0 mm 3 mps 742 mmHg 34%
    12:00 +33°C° 0 mm 3 mps 742 mmHg 34%
    13:00 +33°C° 0 mm 4 mps 742 mmHg 34%
    14:00 +31°C° 0 mm 3 mps 742 mmHg 37%
    15:00 +30°C° 0 mm 3 mps 742 mmHg 40%
    16:00 +28°C° 0 mm 3 mps 742 mmHg 43%
    17:00 +24°C° 0 mm 2 mps 742 mmHg 57%
    18:00 +21°C° 0 mm 1 mps 742 mmHg 72%
    19:00 +15°C° 0 mm 0 mps 742 mmHg 86%
    20:00 +14°C° 0 mm 0 mps 742 mmHg 85%
    21:00 +14°C° 0 mm 0 mps 742 mmHg 84%
    22:00 +14°C° 0 mm 0 mps 742 mmHg 83%
    23:00 +14°C° 0 mm 0 mps 742 mmHg 82%
    Mostrar más